Home   Weather   Erkrath   Past weeks

Flag for Germany Past Weather in Erkrath, North Rhine-Westphalia, Germany — Yesterday and Last 2 Weeks

Now
72 °F

Broken clouds.


Feels Like: 74 °F
Forecast: 58 / 69 °F
Wind: 13 mph from South

Location: Duesseldorf

Current Time: Jun 28, 2017 at 2:30:01 pm

Latest Report: Jun 28, 2017 at 1:50 pm


Visibility: N/A

Pressure: 29.42 "Hg

Humidity: 73%

Dew Point: 63 °F

Location of ErkrathLocation

Past Weather in Erkrath — Graph

°F

Erkrath Temperature Yesterday

Maximum temperature yesterday: 72 °F (at 2:20 pm)
Minimum temperature yesterday: 57 °F (at 4:20 am)
Average temperature yesterday: 64 °F

High & Low Weather Summary for the Past Weeks

 TemperatureHumidityPressure
High95 °F (Jun 22, 2:20 pm)100% (Jun 14, 5:50 am)30.30 "Hg (Jun 14, 5:50 am)
Low48 °F (Jun 14, 5:50 am)27% (Jun 19, 5:20 pm)29.42 "Hg (Jun 28, 12:20 pm)
Average69 °F63%30.00 "Hg
* Reported Jun 13 1:20 pm — Jun 28 1:20 pm, Erkrath. Weather by CustomWeather, © 2017

Note: Actual official high and low records may vary slightly from our data, if they occured in-between our weather recording intervals... More about our weather records

Advertising

Erkrath Weather History for the Previous 24 Hours

Scroll right to see more
 ConditionsComfort  
Time TempWeatherWind HumidityBarometerVisibility
1:20 pm
Wed, Jun 28
73 °FBroken clouds.13 mph69%29.42 "HgN/A
12:50 pm72 °FBroken clouds.15 mph73%29.42 "HgN/A
12:20 pm72 °FPartly sunny.9 mph73%29.42 "HgN/A
11:50 am70 °FBroken clouds.13 mph78%29.45 "HgN/A
11:20 am68 °FBroken clouds.12 mph83%29.45 "HgN/A
10:50 am68 °FSprinkles. Broken clouds.13 mph83%29.45 "HgN/A
10:20 am68 °FSprinkles. Broken clouds.14 mph83%29.45 "HgN/A
9:50 am68 °FSprinkles. Broken clouds.13 mph83%29.45 "HgN/A
9:20 am68 °FBroken clouds.12 mph83%29.45 "HgN/A
8:50 am68 °FBroken clouds.10 mph83%29.45 "HgN/A
8:20 am66 °FBroken clouds.9 mph88%29.47 "HgN/A
7:50 am66 °FLight rain. Partly sunny.10 mph88%29.47 "HgN/A
7:20 am66 °FLight rain. Broken clouds.16 mph88%29.47 "HgN/A
6:50 am68 °FLight rain. Broken clouds.14 mph78%29.47 "HgN/A
6:20 am68 °FLight rain. Partly sunny.10 mph78%29.47 "HgN/A
5:50 am70 °FPartly sunny.13 mph73%29.45 "HgN/A
5:20 am70 °FSunny.13 mph73%29.47 "Hg10 mi
4:50 am70 °FClear.14 mph73%29.47 "Hg10 mi
4:20 am68 °FClear.9 mph78%29.47 "Hg10 mi
3:50 am63 °FClear.1 mph94%29.50 "Hg10 mi
3:20 am63 °FFog.5 mph94%29.50 "HgN/A
2:50 am63 °FFog.5 mph94%29.50 "HgN/A
2:20 am63 °FClear.5 mph100%29.53 "Hg10 mi
1:50 am64 °FClear.2 mph94%29.56 "Hg10 mi
1:20 am64 °FPassing clouds.2 mph94%29.56 "HgN/A
12:50 am64 °FClear.3 mph94%29.56 "Hg10 mi
12:20 am66 °FClear.5 mph88%29.59 "Hg10 mi
11:50 pm
Tue, Jun 27
66 °FLight rain. Clear.5 mph83%29.59 "HgN/A
11:20 pm66 °FClear.7 mph83%29.59 "Hg10 mi
10:50 pm66 °FClear.6 mph83%29.59 "Hg10 mi
10:20 pm66 °FClear.7 mph83%29.62 "Hg10 mi
9:50 pm68 °FPassing clouds.7 mph78%29.62 "HgN/A
9:20 pm68 °FPassing clouds.7 mph78%29.62 "HgN/A
8:50 pm68 °FLight rain. Partly sunny.8 mph78%29.62 "HgN/A
8:20 pm68 °FBroken clouds.9 mph73%29.65 "HgN/A
7:50 pm68 °FBroken clouds.10 mph73%29.65 "HgN/A
7:20 pm70 °FPartly sunny.9 mph69%29.65 "HgN/A
6:50 pm70 °FPartly sunny.9 mph69%29.68 "HgN/A
6:20 pm70 °FPartly sunny.12 mph69%29.68 "HgN/A
5:50 pm70 °FPartly sunny.10 mph69%29.71 "HgN/A
5:20 pm68 °FMostly cloudy.9 mph73%29.71 "HgN/A
4:50 pm70 °FMostly cloudy.8 mph69%29.74 "HgN/A
4:20 pm70 °FLight rain. Broken clouds.9 mph73%29.74 "HgN/A
3:50 pm70 °FLight rain. Partly sunny.7 mph73%29.74 "HgN/A
3:20 pm70 °FBroken clouds.9 mph64%29.77 "HgN/A
2:50 pm70 °FBroken clouds.8 mph64%29.77 "HgN/A
2:20 pm72 °FBroken clouds.8 mph61%29.77 "HgN/A
Weather by CustomWeather, © 2017

See weather overviewHow to use our weather pages